Content
SEND FEEDBACK

Daily
Averages
Monthly
Summary
Switzerland

ZÜRICH, SWITZERLAND


Home > Europe > Switzerland
Elevation: 1867 feet     Latitude: 47 23N     Longitude: 008 34E

WEATHER
 
SELECT A DAY
Number of Records: 287,581;   Date Range: 7/1/96 - 9/22/14
 
SHARE

PRINT THIS DATA

[ ← Previous Day ]
WEATHER ALMANAC - JULY 3, 2013
[ Next Day → ]
[ °C ]   °F
Weather ElementAverageHighLow
Temperature61.4 °F64.4 °F (5:50 pm)60.8 °F (2:50 am)
Dewpoint58.9 °F62.6 °F (5:50 pm)57.2 °F (1:50 am)
Humidity91.7 %100 % (6:50 pm)82 % (1:50 am)
Barometer29.99 in30.06 in (10:50 pm)29.92 in (5:50 am)
Wind Speed2.6 mph5.8 mph (10:50 am)
Weather ElementAverage
Visibility5.8 mi
Wind DirectionENE (64.8 °)

Weather ElementTotal
Precipitation---
Heating Degree Days2.4 (Base 65)
Growing Degree Days12.6 (Base 50)
Averaged from 23 records on July 3, 2013
WEATHER CONDITIONS BREAKOUT
WIND DIRECTION BREAKOUT
WEATHER BY HOUR - JULY 3, 2013
[ °C ]   °F
Local TimeTemperatureDewpointHumidityBarometerVisibilityWind DirectionWind SpeedGust SpeedPrecipitationEventsConditions
1:50 AM62.6 °F57.2 °F82 %29.98 in6.2 miVariable3.5 mphRainHeavy Rain
2:50 AM60.8 °F57.2 °F88 %29.98 in6.2 miESE (120°)4.6 mphScattered Clouds
3:50 AM60.8 °F57.2 °F88 %29.95 in6.2 miCalmMostly Cloudy
4:50 AM60.8 °F57.2 °F88 %29.95 in6.2 miSE (140°)3.5 mphRainLight Rain Showers
5:50 AM60.8 °F57.2 °F88 %29.92 in6.2 miVariable2.3 mphScattered Clouds
6:50 AM60.8 °F57.2 °F88 %29.95 in6.2 miVariable1.2 mphRainLight Rain Showers
7:50 AM60.8 °F57.2 °F88 %29.95 in6.2 miVariable1.2 mphRainLight Rain Showers
8:50 AM62.6 °F57.2 °F82 %29.95 in6.2 miVariable2.3 mphRainLight Rain Showers
9:50 AM60.8 °F57.2 °F88 %29.98 in6.2 miVariable1.2 mphRainRain
10:50 AM60.8 °F59.0 °F94 %29.98 in5.0 miNNW (330°)5.8 mphRainRain
11:50 AM60.8 °F59.0 °F94 %29.98 in4.3 miNNW (340°)3.5 mphRainRain
12:50 PM60.8 °F59.0 °F94 %29.98 in6.2 miVariable1.2 mphRainRain Showers
1:50 PM60.8 °F59.0 °F94 %29.98 in6.2 miSE (140°)3.5 mphRainLight Rain Showers
2:50 PM60.8 °F59.0 °F94 %29.98 in4.3 miVariable2.3 mphRainRain
3:50 PM62.6 °F59.0 °F88 %30.01 in5.0 miVariable2.3 mphRainRain Showers
4:50 PM62.6 °F60.8 °F94 %30.01 in3.1 miSSE (150°)3.5 mphRainLight Rain
5:50 PM64.4 °F62.6 °F94 %30.01 in6.2 miSE (130°)4.6 mphRainLight Rain Showers
6:50 PM60.8 °F60.8 °F100 %30.01 in6.2 miSE (140°)3.5 mphRainLight Rain Showers
7:50 PM62.6 °F60.8 °F94 %30.04 in6.2 miVariable2.3 mphRainRain Showers
8:50 PM62.6 °F60.8 °F94 %30.04 in6.2 miVariable2.3 mphRainRain
9:50 PM60.8 °F60.8 °F100 %30.04 in6.2 miVariable2.3 mphRainLight Rain
10:50 PM60.8 °F60.8 °F100 %30.06 in6.2 miVariable1.2 mphRainLight Rain Showers
11:50 PM60.8 °F59.0 °F94 %30.06 in6.2 miVariable2.3 mphMostly Cloudy
Hourly data recorded from LSMD, located miles away from Zürich, Switzerland







STORIES FROM OUR PARTNERS